Tracking 19176 objects as of 27-May-2018
HD Live streaming from Space Station
objects crossing your sky now

COSMOS 2440

Track COSMOS 2440 now!
COSMOS 2440 is classified as:


NORAD ID: 33108
Int'l Code: 2008-033A
Perigee: 35,776.6 km
Apogee: 35,815.2 km
Inclination: 5.2 °
Period: 1,436.2 minutes
Semi major axis: 42166 km
RCS: 10.0237 m2 (large)
Launch date: June 27, 2008
Source: Commonwealth of Independent States (former USSR) (CIS)
Launch site: TYURATAM MISSILE AND SPACE COMPLEX (TTMTR)

Cosmos 2440 is a Russian military, geostationary, early warning craft.
aabbcc
Your satellite tracking list
Your tracking list is empty




NASA's NSSDC Master Catalog

Two Line Element Set (TLE):
1 33108U 08033A   18146.82896569 -.00000142 +00000-0 +00000-0 0  9990
2 33108 005.2236 056.2829 0004578 218.1673 347.1887 01.00264098036275
Source of the keplerian elements: AFSPC